ATLAS 5 CENTAUR DEB, 52041

Orbit data source: Space-Track

ATLAS 5 CENTAUR DEB, 52041 is space debris in HEO originally from a launch on Wed, 17 Oct 2018 UTC launched from the Air Force Eastern Test Range (AFETR). Debris objects in space refer to the collection of defunct objects orbiting the Earth. Examples of debris include non-operational satellites, rocket bodies, and fragments generated from explosions, collisions, or faulty payload assembly.

Loading next visibility...
Identifier
52041, 2018-079GK
Orbit
HEO
Country
Flag of USUS
Related business
Flag of USUnited Launch Alliance/Lockheed Martin (US)
Manufacturer
ULA Decatur
Mission
Spacecraft
Bus & Motor
Unknown
Mass
Unknown
Launch date (UTC)
2018-10-17 (8 years ago)
Launch vehicle
Unknown
Launch site
Air Force Eastern Test Range (AFETR)
Object type
Payload
Rocket body
Debris
Shape & HBR
Unknown shape, 1.1 m
Radar Cross Section
RCS unknown

Expand to show TLE details & history
Last TLE update: 5 months ago

TLE from 5 months ago
0 ATLAS 5 CENTAUR DEB
1 52041U 18079GK  26010.93496661 -.00000059  00000-0  00000-0 0  9995
2 52041  12.4280 244.6818 4685401 259.6750  46.1278  2.29473155 32445
Epoch: 2026-01-10T22:26Z
TLE epoch observation values (Epoch: 2026-01-10T22:26:21.115Z)
Latitude
0.00004°
Longitude
157.7183°
Altitude
14,335.549 km
Speed
4.698 km/s
True Right ascension
16h 19m 02s
True Declination
0° 00' 00"
Sunlit
Object was in daylight at epoch
Visualization orbit readout
Latitude
Unknown
Longitude
Unknown
Altitude
Unknown
Speed
Unknown
Apparent Right ascension
Unknown
Apparent Declination
Unknown
Sunlit
N/A
Visualization observer readout
Local Sidereal Time
21:35:48
Azimuth
Unknown
Elevation
Unknown
Doppler factor
Unknown
Orbital elements
Apogee altitude
29,281.516 km
Perigee altitude
6,526.976 km
Semi-major axis
24,282.383 km
Eccentricity
0.46854
Inclination
12.428°
RAAN
244.6818°
Arg. of periapsis
259.675°
True anomaly
100.33729°
Mean anomaly
46.1278°
Eccentric anomaly
71.60085°
Mean motion
0.5736 °/min
Orbital period
627.62 mins
BSTAR
0
Loading maneuver chart data...
Computing Atmospheric mass density...

Documentation

Showing up to 5 results
|